Tracking 22842 objects as of 15-Apr-2021
HD Live streaming from Space Station
objects crossing your sky now

STARLINK-1538

Track STARLINK-1538 now!
10-day predictions
STARLINK-1538 is classified as:


NORAD ID: 46071
Int'l Code: 2020-055AW
Perigee: 553.3 km
Apogee: 555.4 km
Inclination: 53.1 °
Period: 95.6 minutes
Semi major axis: 6925 km
RCS: Unknown
Launch date: August 7, 2020
Source: United States (US)
Launch site: AIR FORCE EASTERN TEST RANGE (AFETR)
aabbcc
Your satellite tracking list
Your tracking list is empty




NASA's NSSDC Master Catalog

Two Line Element Set (TLE):
1 46071U 20055AW  21104.59628491 -.00000781  00000-0 -33513-4 0  9999
2 46071  53.0573 212.6387 0001556 136.7024 223.4087 15.06394901 38962
Source of the keplerian elements: AFSPC